Weather History for KADF - March, 2014

Change the Weather History Date:

Wednesday, March 26, 2014

  Actual Average Record
Temperature  
Mean Temperature 48 °F -  
Max Temperature 63 °F - - ()
Min Temperature 32 °F - - ()
Degree Days  
Heating Degree Days 18    
Moisture  
Dew Point 31 °F    
Average Humidity 54    
Maximum Humidity 92    
Minimum Humidity 30    
Precipitation  
Precipitation 0.00 in - - ()
Sea Level Pressure  
Sea Level Pressure 30.25 in    
Wind  
Wind Speed 5 mph (ESE)    
Max Wind Speed 10 mph    
Max Gust Speed -    
Visibility 10 miles    
Events Rain    
Averages and records for this station are not official NWS values.
T = Trace of Precipitation, MM = Missing Value Source: NWS Daily Summary

Daily Weather History Graph

Daily Weather History Graph

Search for Another Location

Airport or City:

Trip Planner

Search our weather history database for the weather conditions in past years. The results will help you decide how hot, cold, wet, or windy it might be!

Date:

Astronomy

Mar. 26, 2014 Rise Set
Actual Time 7:07 AM CDT 7:28 PM CDT
Civil Twilight 6:42 AM CDT 7:53 PM CDT
Nautical Twilight 6:13 AM CDT 8:23 PM CDT
Astronomical Twilight 5:43 AM CDT 8:52 PM CDT
Moon 4:05 AM CDT (3/26) 3:18 PM CDT (3/26)
Length of Visible Light 13h 10m
Length of Day
12h 20m
Waning Crescent, 21% of the Moon is Illuminated
Mar 26
Waning Crescent
Mar 30
New
Apr 7
First Quarter
Apr 15
Full
Apr 22
Last Quarter

Hourly Weather History & Observations

Time (CDT) Temp. Windchill Dew Point Humidity Pressure Visibility Wind Dir Wind Speed Gust Speed Precip Events Conditions
12:56 AM 34.9 °F - 32.9 °F 92% 30.35 in 9.0 mi Calm Calm - N/A   Clear
1:56 AM 36.0 °F - 32.9 °F 89% 30.35 in 10.0 mi Calm Calm - N/A   Clear
2:56 AM 36.9 °F 31.4 °F 32.0 °F 83% 30.33 in 10.0 mi NE 6.9 mph - N/A   Clear
3:56 AM 36.0 °F 31.1 °F 28.0 °F 73% 30.32 in 10.0 mi NE 5.8 mph - N/A   Clear
4:56 AM 34.9 °F 32.0 °F 27.1 °F 73% 30.33 in 10.0 mi NNE 3.5 mph - N/A   Clear
5:56 AM 34.0 °F 31.0 °F 28.0 °F 79% 30.35 in 10.0 mi NNE 3.5 mph - N/A   Clear
6:56 AM 32.9 °F 27.5 °F 27.1 °F 79% 30.36 in 10.0 mi NE 5.8 mph - N/A   Clear
7:56 AM 34.9 °F 30.8 °F 27.1 °F 73% 30.39 in 10.0 mi NNE 4.6 mph - N/A   Clear
8:56 AM 41.0 °F - 26.1 °F 55% 30.40 in 10.0 mi Calm Calm - N/A   Clear
9:56 AM 48.9 °F - 25.2 °F 40% 30.39 in 10.0 mi ESE 6.9 mph - N/A   Clear
10:56 AM 52.0 °F - 26.1 °F 37% 30.38 in 10.0 mi SSE 9.2 mph - N/A   Clear
11:56 AM 55.9 °F - 27.1 °F 33% 30.33 in 10.0 mi SSE 9.2 mph - N/A   Clear
12:56 PM 59.0 °F - 29.1 °F 32% 30.28 in 10.0 mi SSE 8.1 mph - N/A   Clear
1:56 PM 59.9 °F - 28.0 °F 30% 30.25 in 10.0 mi Variable 6.9 mph - N/A   Partly Cloudy
2:56 PM 63.0 °F - 31.1 °F 30% 30.21 in 10.0 mi SSE 10.4 mph - N/A   Clear
3:56 PM 63.0 °F - 31.1 °F 30% 30.18 in 10.0 mi SE 10.4 mph - N/A   Partly Cloudy
4:56 PM 61.9 °F - 32.9 °F 34% 30.16 in 10.0 mi SSE 9.2 mph - N/A   Partly Cloudy
5:56 PM 59.9 °F - 34.9 °F 39% 30.16 in 10.0 mi SSE 6.9 mph - N/A   Partly Cloudy
6:13 PM 55.4 °F - 39.2 °F 54% 30.06 in 5.0 mi East 9.2 mph - 0.00 in Rain Light Rain
6:56 PM 56.8 °F - 36.0 °F 46% 30.12 in 10.0 mi SE 9.2 mph - 0.00 in   Clear
7:56 PM 54.9 °F - 37.9 °F 53% 30.13 in 10.0 mi SE 5.8 mph - 0.00 in   Partly Cloudy
8:56 PM 54.9 °F - 36.9 °F 51% 30.12 in 10.0 mi SE 5.8 mph - 0.00 in Rain Light Rain
9:56 PM 54.9 °F - 36.9 °F 51% 30.13 in 9.0 mi SSE 5.8 mph - 0.00 in Rain Light Rain
10:56 PM 54.0 °F - 36.9 °F 52% 30.10 in 10.0 mi South 5.8 mph - 0.00 in   Overcast
11:56 PM 54.0 °F - 36.9 °F 52% 30.10 in 10.0 mi South 6.9 mph - N/A   Overcast